Weather History for Liberal, KS

Change the Weather History Date:

Friday, February 1, 2013

  Actual Average Record
Temperature  
Mean Temperature 32 °F -  
Max Temperature 51 °F 52 °F 84 °F (1963)
Min Temperature 14 °F 22 °F -13 °F (1951)
Degree Days  
Heating Degree Days 32    
Moisture  
Dew Point 18 °F    
Average Humidity 62    
Maximum Humidity 80    
Minimum Humidity 35    
Precipitation  
Precipitation 0.00 in - - ()
Sea Level Pressure  
Sea Level Pressure 30.17 in    
Wind  
Wind Speed 8 mph (South)    
Max Wind Speed 24 mph    
Max Gust Speed 28 mph    
Visibility 10 miles    
Events      
Averages and records for this station are not official NWS values.
T = Trace of Precipitation, MM = Missing Value Source: NWS Daily Summary

Daily Weather History Graph

Daily Weather History Graph

Search for Another Location

Airport:

Trip Planner

Search our weather history database for the weather conditions in past years. The results will help you decide how hot, cold, wet, or windy it might be!

Date:

Astronomy

Feb. 01, 2013 Rise Set
Actual Time 7:46 AM CST 6:09 PM CST
Civil Twilight 7:18 AM CST 6:36 PM CST
Nautical Twilight 6:47 AM CST 7:07 PM CST
Astronomical Twilight 6:17 AM CST 7:38 PM CST
Moon No Moon Rise 10:30 AM CST (2/1)
Length of Visible Light 11h 17m
Length of Day
10h 23m
Waning Gibbous, 70% of the Moon is Illuminated
Feb 1
Waning Gibbous
Feb 3
Last Quarter
Feb 10
New
Feb 17
First Quarter
Feb 25
Full

Hourly Weather History & Observations

Time (CST) Temp. Windchill Dew Point Humidity Pressure Visibility Wind Dir Wind Speed Gust Speed Precip Events Conditions
12:15 AM 17.6 °F 8.2 °F 10.4 °F 73% 30.30 in 10.0 mi SE 6.9 mph - N/A   Clear
12:35 AM 17.6 °F 8.2 °F 10.4 °F 73% 30.30 in 10.0 mi SE 6.9 mph - N/A   Clear
12:55 AM 17.6 °F 7.3 °F 10.4 °F 73% 30.29 in 10.0 mi SE 8.1 mph - N/A   Clear
1:15 AM 17.6 °F 9.3 °F 10.4 °F 73% 30.30 in 10.0 mi SE 5.8 mph - N/A   Clear
1:35 AM 15.8 °F 10.2 °F 8.6 °F 73% 30.31 in 10.0 mi South 3.5 mph - N/A   Clear
2:15 AM 15.8 °F - 10.4 °F 79% 30.32 in 10.0 mi Calm Calm - N/A   Clear
2:35 AM 15.8 °F - 10.4 °F 79% 30.31 in 10.0 mi Calm Calm - N/A   Clear
3:15 AM 15.8 °F 10.2 °F 8.6 °F 73% 30.30 in 10.0 mi SW 3.5 mph - N/A   Clear
3:35 AM 14.0 °F - 8.6 °F 79% 30.29 in 10.0 mi Calm Calm - N/A   Clear
4:15 AM 14.0 °F 3.9 °F 6.8 °F 73% 30.27 in 10.0 mi SSW 6.9 mph - N/A   Clear
4:35 AM 15.8 °F 6.1 °F 8.6 °F 73% 30.27 in 10.0 mi SSW 6.9 mph - N/A   Clear
4:55 AM 15.8 °F 8.6 °F 10.4 °F 79% 30.27 in 10.0 mi South 4.6 mph - N/A   Clear
5:15 AM 15.8 °F 6.1 °F 8.6 °F 73% 30.27 in 10.0 mi South 6.9 mph - N/A   Clear
5:35 AM 15.8 °F 6.1 °F 10.4 °F 79% 30.27 in 10.0 mi South 6.9 mph - N/A   Clear
5:55 AM 15.8 °F 5.1 °F 8.6 °F 73% 30.26 in 10.0 mi South 8.1 mph - N/A   Clear
6:15 AM 15.8 °F 6.1 °F 8.6 °F 73% 30.25 in 10.0 mi South 6.9 mph - N/A   Clear
6:35 AM 15.8 °F 6.1 °F 10.4 °F 79% 30.25 in 10.0 mi South 6.9 mph - N/A   Clear
6:55 AM 15.8 °F 3.4 °F 8.6 °F 73% 30.23 in 10.0 mi South 10.4 mph - N/A   Clear
7:15 AM 17.6 °F 6.4 °F 10.4 °F 73% 30.23 in 10.0 mi South 9.2 mph - N/A   Clear
7:35 AM 17.6 °F 6.4 °F 12.2 °F 79% 30.23 in 10.0 mi South 9.2 mph - N/A   Clear
8:15 AM 17.6 °F 7.3 °F 12.2 °F 79% 30.24 in 10.0 mi South 8.1 mph - N/A   Clear
8:35 AM 19.4 °F 8.6 °F 12.2 °F 74% 30.22 in 10.0 mi SE 9.2 mph - N/A   Clear
8:55 AM 21.2 °F 10.1 °F 15.8 °F 80% 30.22 in 10.0 mi SSE 10.4 mph - N/A   Clear
9:15 AM 23.0 °F 10.6 °F 17.6 °F 80% 30.22 in 10.0 mi South 13.8 mph - N/A   Clear
9:35 AM 24.8 °F 12.9 °F 17.6 °F 74% 30.22 in 10.0 mi South 13.8 mph - N/A   Clear
10:15 AM 30.2 °F 17.8 °F 21.2 °F 69% 30.20 in 10.0 mi South 19.6 mph 24.2 mph N/A   Clear
10:35 AM 32.0 °F 18.9 °F 21.2 °F 64% 30.19 in 10.0 mi South 24.2 mph 27.6 mph N/A   Clear
10:55 AM 33.8 °F 21.9 °F 23.0 °F 65% 30.19 in 10.0 mi South 21.9 mph 27.6 mph N/A   Clear
11:15 AM 35.6 °F 24.2 °F 24.8 °F 65% 30.18 in 10.0 mi South 21.9 mph 27.6 mph N/A   Clear
11:35 AM 35.6 °F 24.8 °F 24.8 °F 65% 30.18 in 10.0 mi South 19.6 mph 24.2 mph N/A   Clear
12:15 PM 39.2 °F 29.8 °F 26.6 °F 61% 30.16 in 10.0 mi SSW 18.4 mph 25.3 mph N/A   Clear
12:35 PM 41.0 °F 32.8 °F 26.6 °F 57% 30.13 in 10.0 mi SSW 16.1 mph 21.9 mph N/A   Clear
1:15 PM 44.6 °F 37.2 °F 26.6 °F 49% 30.10 in 10.0 mi SSW 17.3 mph 23.0 mph N/A   Clear
1:35 PM 44.6 °F 37.8 °F 26.6 °F 49% 30.09 in 10.0 mi SSW 15.0 mph 24.2 mph N/A   Clear
1:55 PM 46.4 °F 40.7 °F 26.6 °F 46% 30.08 in 10.0 mi SSW 12.7 mph 19.6 mph N/A   Clear
2:15 PM 46.4 °F 40.1 °F 26.6 °F 46% 30.07 in 10.0 mi South 15.0 mph - N/A   Clear
2:35 PM 48.2 °F - 26.6 °F 43% 30.06 in 10.0 mi SW 12.7 mph 18.4 mph N/A   Clear
2:55 PM 48.2 °F - 26.6 °F 43% 30.06 in 10.0 mi SW 13.8 mph - N/A   Clear
3:15 PM 48.2 °F - 26.6 °F 43% 30.05 in 10.0 mi SW 9.2 mph - N/A   Clear
3:35 PM 50.0 °F - 26.6 °F 40% 30.04 in 10.0 mi SSW 10.4 mph - N/A   Clear
4:15 PM 51.8 °F - 26.6 °F 38% 30.03 in 10.0 mi SW 8.1 mph - N/A   Clear
4:35 PM 51.8 °F - 26.6 °F 38% 30.03 in 10.0 mi SSW 8.1 mph - N/A   Clear
4:55 PM 51.8 °F - 26.6 °F 38% 30.03 in 10.0 mi SSW 5.8 mph - N/A   Clear
5:15 PM 51.8 °F - 24.8 °F 35% 30.04 in 10.0 mi South 5.8 mph - N/A   Clear
5:35 PM 50.0 °F - 24.8 °F 37% 30.04 in 10.0 mi South 4.6 mph - N/A   Clear
5:55 PM 48.2 °F - 24.8 °F 40% 30.05 in 10.0 mi SE 4.6 mph - N/A   Clear
6:15 PM 46.4 °F 45.2 °F 23.0 °F 40% 30.05 in 10.0 mi SE 3.5 mph - N/A   Clear
6:35 PM 42.8 °F 40.1 °F 21.2 °F 42% 30.06 in 10.0 mi North 4.6 mph - N/A   Clear
6:55 PM 39.2 °F - 19.4 °F 45% 30.07 in 10.0 mi Calm Calm - N/A   Clear
7:15 PM 39.2 °F - 21.2 °F 49% 30.08 in 10.0 mi Calm Calm - N/A   Clear
7:35 PM 37.4 °F 34.9 °F 19.4 °F 48% 30.08 in 10.0 mi NE 3.5 mph - N/A   Clear
7:55 PM 35.6 °F - 19.4 °F 52% 30.09 in 10.0 mi Calm Calm - N/A   Clear
8:15 PM 33.8 °F - 17.6 °F 52% 30.10 in 10.0 mi Calm Calm - N/A   Clear
8:35 PM 32.0 °F 27.5 °F 17.6 °F 55% 30.10 in 10.0 mi ESE 4.6 mph - N/A   Clear
8:55 PM 30.2 °F 26.7 °F 15.8 °F 55% 30.11 in 10.0 mi SSE 3.5 mph - N/A   Clear
9:15 PM 30.2 °F 24.3 °F 19.4 °F 64% 30.11 in 10.0 mi SSE 5.8 mph - N/A   Clear
9:35 PM 33.8 °F - 19.4 °F 56% 30.12 in 10.0 mi Calm Calm - N/A   Clear
9:55 PM 28.4 °F - 15.8 °F 59% 30.12 in 10.0 mi Calm Calm - N/A   Clear
10:15 PM 26.6 °F - 15.8 °F 64% 30.13 in 10.0 mi Calm Calm - N/A   Clear
10:35 PM 24.8 °F 14.0 °F 14.0 °F 64% 30.15 in 10.0 mi North 11.5 mph - N/A   Clear
10:55 PM 28.4 °F 18.5 °F 21.2 °F 74% 30.16 in 10.0 mi North 11.5 mph - N/A   Clear
11:15 PM 28.4 °F 22.2 °F 19.4 °F 69% 30.16 in 10.0 mi North 5.8 mph - N/A   Clear
11:35 PM 26.6 °F 17.5 °F 17.6 °F 69% 30.17 in 10.0 mi North 9.2 mph - N/A   Clear
11:55 PM 26.6 °F 20.0 °F 17.6 °F 69% 30.16 in 10.0 mi NNW 5.8 mph - N/A   Clear